www.pogodaiklimat.ru

Погода и климат >> Архив погоды >> Иран >> Kashan


ПОГОДА в Kashan

  • Прогноз погоды в Kashan
  • Монитор погоды в Kashan
  • Климат города

АРХИВ ПОГОДЫ в Kashan

Время (UTC), дата Ветер
(напр.,м/с)
 
Видим.   Явления Облачность Т
(С)
Тd
(С)
f
(%)
Тe
(С)
Тes
(С)
Комфортность P
(гПа)
Po
(гПа)
Тmin
(С)
Tmax
(С)
R
(мм)
R24
(мм)
S
(см)
03 11.10 штиль 0 10 км ясно +14.8 +12.0 83 +15 +15 1015.4 910.0 +14.8
06 11.10 штиль 0 10 км ясно +23.4 +8.3 38 +25 +34 комфорт 1016.7 912.0
09 11.10 штиль 0 10 км ясно +27.6 +7.7 28 +27 +43 жарко 1014.4 910.2
12 11.10 штиль 0 10 км 5/0
[Ci sp]
+29.4 +5.8 22 +28 +33 жарко 1012.4 908.5
15 11.10 штиль 0 10 км 4/0
[Ci fib]
+25.4 +4.5 26 +25 +25 комфорт 1013.8 908.6 +30.4
18 11.10 штиль 0 10 км ясно +23.0 +7.2 36 +24 +24 комфорт 1013.1 909.0
21 11.10 СЗ 2 10 км 4/0
[Ac trans]
+21.8 +8.9 44 +23 +23 комфорт 1013.6 910.0
00 12.10 штиль 0 10 км 5/3 1200 м
[Sc Ac trans]
+18.0 +8.8 55 +18 +18 1015.3 911.2
03 12.10 штиль 0 10 км ясно +17.4 +8.0 54 +17 +17 1015.2 910.3 +17.0
06 12.10 штиль 0 10 км ясно +25.0 +6.6 31 +25 +34 комфорт 1015.0 910.9
09 12.10 С 3 10 км 3/0
[Ci fib]
+27.0 +7.2 28 +27 +36 жарко 1013.5 909.8
12 12.10 штиль 0 10 км 8/3 1200 м
[Sc Cs]
+30.0 +5.7 22 +29 +32 жарко 1012.1 908.4
15 12.10 штиль 0 10 км 4/4 1200 м
[Sc]
+26.0 +4.4 25 +25 +25 комфорт 1013.1 908.5 +30.6
18 12.10 СВ 2 10 км 4/0
[Ac trans]
+22.8 +8.4 40 +24 +24 комфорт 1014.0 910.1
21 12.10 штиль 0 8000 м гроза, ливневой дождь 8/4 1050 м
[Cb cap As op]
+21.0 +10.5 51 +23 +23 комфорт 1017.9 913.7
00 13.10 штиль 0 10 км {гроза, дождь} 8/4 1200 м
[Sc As trans]
+18.6 +12.8 69 +19 +19 1017.2 913.2
03 13.10 штиль 0 10 км 3/0
[Ac trans]
+16.8 +12.7 77 +17 +17 1017.8 912.8 +16.8
06 13.10 С 5 10 км ясно +21.8 +8.8 43 +23 +27 комфорт 1019.9 914.9
09 13.10 З 4 10 км 5/3 1200 м
[Cu hum Ci sp]
+24.8 +5.7 29 +24 +30 комфорт 1019.5 914.6
12 13.10 ЮЗ 6 10 км 6/3 1200 м
[Sc diur, vesp Ci sp]
+26.4 +6.7 29 +26 +27 жарко 1017.8 913.0
15 13.10 СВ 2 10 км 8/4 1200 м
[Sc Cs]
+23.2 +6.4 34 +24 +24 комфорт 1019.4 913.6 +27.0
18 13.10 штиль 0 10 км 8/4 1200 м
[Sc Cs]
+21.8 +7.4 39 +23 +23 комфорт 1020.0 914.8
21 13.10 штиль 0 10 км 4/0
[Cs]
+18.6 +7.3 48 +19 +19 1018.7 913.6
00 14.10 СЗ 4 10 км ясно +18.2 +8.2 52 +18 +18 1018.8 913.9
03 14.10 штиль 0 10 км ясно +15.4 +8.6 64 +15 +15 1021.1 914.9 +15.4
06 14.10 СЗ 4 10 км ясно +19.2 +9.0 52 +20 +24 1020.3 914.6
09 14.10 штиль 0 10 км ясно +22.6 +8.6 41 +24 +39 комфорт 1018.4 913.0
12 14.10 штиль 0 10 км 5/5 900 м
[Cb calv]
+24.2 +7.0 33 +24 +27 комфорт 1015.1 910.1
15 14.10 ЮЗ 5 10 км в посл. час гроза 8/5 900 м
[Cb calv As trans]
+19.6 +10.0 54 +21 +21 комфорт 1019.0 912.5 +25.2
18 14.10 штиль 0 10 км {гроза, дождь} 3/0
[Ac trans]
+18.2 +10.8 62 +18 +18 1017.5 911.6 0.3
21 14.10 В 2 10 км 4/0
[Ac trans]
+16.8 +9.9 64 +17 +17 1016.2 910.8
00 15.10 штиль 0 10 км 5/0
[Ac trans]
+17.0 +7.5 54 +17 +17 1015.1 910.0
03 15.10 штиль 0 10 км 4/0
[Ci sp]
+14.0 +9.6 75 +14 +14 1017.4 910.8 +13.2
06 15.10 СВ 4 10 км 9/0
[Ac trans Cs]
+21.2 +7.5 41 +22 +25 комфорт 1017.7 912.0
09 15.10 С 3 10 км 10/1 1200 м
[Cu hum Cs]
+24.2 +5.9 31 +24 +31 комфорт 1016.3 910.9
12 15.10 штиль 0 10 км 9/1 1200 м
[Cu hum Cs]
+26.4 +5.6 26 +26 +29 жарко 1014.3 909.6
15 15.10 штиль 0 10 км 5/1 1200 м
[Sc Ci sp]
+22.2 +4.3 31 +22 +22 комфорт 1015.7 909.6 +27.6
18 15.10 штиль 0 10 км 3/3 1200 м
[Sc]
+19.8 +6.5 42 +20 +20 1015.5 910.3
21 15.10 штиль 0 10 км 4/0
[Ac trans]
+19.2 +6.2 43 +20 +20 1015.1 910.3
00 16.10 штиль 0 10 км 5/0
[Ac trans]
+17.4 +6.6 49 +17 +17 1016.6 911.8
03 16.10 штиль 0 10 км 4/0
[Ac trans]
+16.0 +5.7 50 +16 +16 1018.5 912.5 +16.0
06 16.10 СЗ 3 10 км ясно +19.0 +4.8 39 +20 +25 1021.2 914.9
09 16.10 СЗ 3 10 км 3/3 1200 м
[Cu hum]
+22.8 +3.4 28 +23 +29 комфорт 1019.3 913.8
12 16.10 З 2 10 км 3/3 1200 м
[Cu hum]
+24.6 +3.0 24 +24 +26 комфорт 1017.8 912.4
15 16.10 штиль 0 10 км ясно +21.4 +3.5 31 +22 +22 комфорт 1019.1 912.8 +26.0
18 16.10 штиль 0 10 км ясно +19.2 +4.0 37 +19 +19 1020.0 913.7
21 16.10 штиль 0 10 км ясно +18.2 +4.1 39 +18 +18 1019.5 913.3
00 17.10 штиль 0 10 км ясно +16.4 +3.0 41 +16 +16 1019.5 913.7
03 17.10 штиль 0 10 км ясно +14.0 +1.7 43 +14 +14 1021.8 914.8 +13.8
06 17.10 СЗ 2 10 км 4/0
[Ac trans]
+15.8 +1.5 38 +16 +21 1022.7 915.6
09 17.10 СЗ 8 10 км 3/3 1200 м
[Cu hum]
+20.8 +1.8 28 +21 +22 комфорт 1020.6 914.3
12 17.10 СЗ 3 10 км 3/3 1200 м
[Cu hum]
+23.2 +2.3 25 +23 +25 комфорт 1018.1 912.2
15 17.10 З 3 10 км 5/3 1200 м
[Sc Ac trans]
+21.4 +1.6 27 +21 +21 комфорт 1017.9 911.3 +23.8
18 17.10 штиль 0 10 км 5/3 1200 м
[Sc Ac trans]
+17.4 +2.9 38 +17 +17 1019.7 912.6
21 17.10 штиль 0 10 км 4/0
[Ac trans]
+16.8 +2.5 38 +17 +17 1018.4 912.2
00 18.10 штиль 0 10 км ясно +15.2 +1.8 40 +15 +15 1017.8 911.8

 

Местоположение метеостанции Kashan (Иран): широта 33.98 долгота 51.45 высота над уровнем моря 982 м.

В архиве по умолчанию представлена погода в Kashan за последнюю неделю. Архивные данные за месяц целиком и за предыдущие месяцы, начиная с января 2011 года, Вы можете получить, выбрав интересующий диапазон дат из раскрывающегося списка и нажав кнопку "Ввод!".


*Определитесь, кто Вы:
робот инопланетянин человек

Внимание! Время в таблицах - всемирное. Для получения местного времени необходимо прибавить поправку, которая в Kashan равна 3.5 ч.

Смотрите также архив погоды в соседних городах и на ближайших метеорологических станциях:

Погода в Arak (Иран) (155 км)
Погода в Esfahan (Иран) (169 км)
Погода в Ali-Goodarz (Иран) (176 км)
Погода в Tehran (Иран) (189 км)
Погода в Shahre-Kord (Иран) (197 км)
Погода в Semnan (Иран) (248 км)
Погода в Hamedan (Иран) (285 км)
Погода в Ghazvin (Иран) (285 км)
Погода в Khorram Abad (Иран) (290 км)
Погода в Noshahr (Иран) (297 км)

Пояснения к столбцам:

Ветер - указаны скорость ветра в м/с - средняя за 10 мин, порывы в срок и между сроками (в фигурных скобках) и направление, откуда дует ветер: С - северный, СВ - северо-восточный, В - восточный, ЮВ - юго-восточный, Ю - южный, ЮЗ - юго-западный, З - западный, СЗ - северо-западный.
Видимость - горизонтальная дальность видимости в метрах или километрах. При видимости от 1 до 10 км при отсутствии осадков обычно наблюдается дымка, при ухудшении видимости до 1 км и менее - туман. В сухую погоду видимость может ухудшаться дымом, пылью или мглою.
Явления - указаны атмосферные явления, наблюдавшиеся в срок или в последний час перед сроком; фигурными скобками обозначены явления, наблюдавшиеся между сроками (за 1-3 часа до срока); квадратными скобками обозначены град или гололедные отложения с указанием их диаметра в мм.
Облачность - указаны через наклонную черту общая и нижняя облачность в баллах и высота нижней границы облаков в метрах; квадратными скобками обозначены формы облаков: Ci - перистые, Cs - перисто-слоистые, Cc - перисто-кучевые, Ac - высококучевые, As - высокослоистые, Sc - слоисто-кучевые, Ns - слоисто-дождевые, Cu - кучевые, Cb - кучево-дождевые. Подробнее классификацию облаков см. в Атласе облаков (PDF).
T - Температура воздуха - температура, измеренная на высоте 2 м над землей.
Td - Температура точки росы - температура, при понижении до которой содержащийся в воздухе водяной пар достигнет насыщения.
f - Относительная влажность воздуха - влажноcть воздуха, измеренная на высоте 2 м над землей.
Te - Эффективная температура - температура, которую ощущает одетый по сезону человек в тени. Характеристика душности погоды. При расчете учитывается влияние влажности воздуха и скорости ветра на теплоощущения человека.
Tes - Эффективная температура на солнце - температура, которую ощущает человек, с поправкой на солнечный нагрев. Характеристика знойности погоды. Зависит от высоты солнца над горизонтом, облачности и скорости ветра. Ночью, в пасмурную погоду, а также при ветре 12 м/с и более поправка равна нулю.
P - Атмосферное давление - приведенное к уровню моря атмосферное давление.
Po - Атмосферное давление - измеренное на уровне метеостанции атмосферное давление.
Tmin - Минимальная температура - минимум температуры воздуха на высоте 2 м над землей.
Tmax - Максимальная температура - максимум температуры воздуха на высоте 2 м над землей.
R - Количество осадков - Количество выпавших осадков за период времени, мм. При наведении курсора мыши на число - период времени, за который выпало указанное количество осадков.
R24 - Количество осадков - Количество выпавших осадков за 24 часа, мм.
S - Снежный покров - Высота снежного покрова, см. При наведении курсора мыши на число - состояние снежного покрова и степень покрытия местности в баллах.